Regional Weather Roundup
Issued by NWS Portland, ME

Home | Current Version | Previous Version | Text Only | Print | Product List | Glossary On
Versions: 1 2 3 4 5 6 7 8 9 10 11 12 13 14 15 16 17 18 19 20 21 22 23 24 25 26 27 28 29 30 31 32 33 34 35 36 37 38 39 40 41 42 43 44 45 46 47 48 49 50
000
ASUS41 KGYX 081910
RWRGYX
WEATHER ROUNDUP FOR MAINE AND NEW HAMPSHIRE
NATIONAL WEATHER SERVICE GRAY ME
200 PM EST THU DEC 08 2016

MEZ002-005-006-010-012-015-018-020-021-024-026-027-029-082000-
MAINE

CITY           SKY/WX    TMP DP  RH WIND       PRES   REMARKS
PORTLAND       PTSUNNY   42  29  59 W8        29.74F
BAR HARBOR     CLOUDY    39  33  79 S6        29.72F
WISCASSET      SUNNY     41  30  65 VRB6      29.73F
ROCKLAND       SUNNY     40  30  67 SW8       29.72F
FRYEBURG       PTSUNNY   39  27  62 SW7       29.71F
LEWISTONAUBURN PTSUNNY   39  26  59 SW8       29.71F
AUGUSTA        CLOUDY    38  29  70 VRB7      29.71F
WATERVILLE     MOSUNNY   38  30  73 W6        29.68F
BANGOR         PTSUNNY   36  31  82 N7        29.71F
GREENVILLE       N/A     31  28  89 S3        29.62F
MILLINOCKET    CLOUDY    34  28  79 VRB6      29.69F
HOULTON        CLOUDY    32  29  88 S5        29.67F
PRESQUE ISLE   CLOUDY    34  27  75 S7        29.66F
FRENCHVILLE    PTSUNNY   30  25  81 S8        29.60F
CARIBOU        CLOUDY    32  26  78 S8        29.63F
$$

NHZ002-005-008-009-011-012-014-082000-
NEW HAMPSHIRE

CITY           SKY/WX    TMP DP  RH WIND       PRES   REMARKS
PORTSMOUTH     CLOUDY    41  27  56 W12G20    29.75F
ROCHESTER      CLOUDY    40  26  57 VRB6      29.74F
NASHUA         CLOUDY    40  28  62 W8        29.78F
MANCHESTER     CLOUDY    41  25  53 VRB7G16   29.76F
CONCORD        CLOUDY    41  27  57 VRB6      29.76F
LACONIA        CLOUDY    38  26  62 W8        29.74F
PLYMOUTH         N/A     37  28  68 SW5       29.73F
BERLIN         CLOUDY    35  24  64 SW6       29.68S
WHITEFIELD     CLOUDY    35  24  64 SW6       29.69F
JAFFREY        CLOUDY    37  22  54 W9        29.76S
KEENE          CLOUDY    38  28  67 VRB6      29.78F
LEBANON        CLOUDY    39  26  59 W12       29.74F
MT WASHINGTON  SNOW      12  12 100 W39G46      N/A  VSB 0   WCI -12
$$

VTZ005-007-008-082000-
VERMONT

CITY           SKY/WX    TMP DP  RH WIND       PRES   REMARKS
ST JOHNSBURY     N/A     34  30  85 MISG      29.71R
MONTPELIER     LGT SNOW  30  29  96 NW7       29.75S FOG
BURLINGTON     PTSUNNY   37  26  64 S8        29.75F
$$

MAZ007-012-024-CTZ003-RIZ002-NYZ038-NYZ072-082000-
SOUTHERN NEW ENGLAND AND NY

CITY           SKY/WX    TMP DP  RH WIND       PRES   REMARKS
BOSTON         CLOUDY    42  31  64 SW9       29.79F
WORCESTER      CLOUDY    36  29  75 W10       29.76F
NANTUCKET      CLOUDY    47  38  71 W13       29.80F
PROVIDENCE     CLOUDY    42  30  62 W9        29.81F
HARTFORD       PTSUNNY   42  30  62 SW7       29.81F
ALBANY         PTSUNNY   37  29  72 NW15      29.84R
NEW YORK CITY  PTSUNNY   45  22  40 NW18      29.88F
$$

ANZ081-ANZ082-ANZ150-NHZ014-MEZ023>029-082000-
COASTAL MARINE OBSERVATIONS

STATION/POSITION TIME  TEMP    WIND        PRES    WAVE
                       AIR SEA DIR/SP/G            HT/PER
                 (UTC) (F)     (DEG/KT/KT) (MB)    (FT/S)
MOUNT DESERT ROC 1900   42                 1006.6F
MATINICUS ROCK   1800   41     270/ 17/ 20 1006.6F
ISLE OF SHOALS   1800   41     240/ 12/ 14 1008.1F
JEFFREYS LEDGE   1838      51                N/A     3/10
CASHES LEDGE BUO 1850   43 50  240/ 21/ 27 1006.9F   4/ 5
GEORGES BANK BUO 1850   48 51              1008.4F   4/10
$$

.............KEY..............
   WCI - WIND CHILL
   TC  - TEMPERATURE IN CELSIUS
   VSB - VISIBILITY IN MILES
   HX  - HEAT INDEX
   FAIR- INDICATES FEW OR NO CLOUDS BELOW 12,000 FT, WITH NO
         SIGNIFICANT WEATHER AND/OR OBSTRUCTIONS TO VISIBILITY.





USA.gov is the U.S. government's official web portal to all federal, state and local government web resources and services.